Fort Yukon, AK

11:54 AM AKST on December 15, 2017 (GMT -0900)
Fort Yukon

Weather History for PFYU - November, 2013

Change the Weather History Date:

Tuesday, November 19, 2013

  Actual Average Record
Temperature  
Mean Temperature -20 °F -  
Max Temperature -11 °F 0 °F 26 °F (2014)
Min Temperature -29 °F -8 °F -41 °F (2011)
Degree Days  
Heating Degree Days 85    
Moisture  
Dew Point -25 °F    
Average Humidity 70    
Maximum Humidity 91    
Minimum Humidity 48    
Precipitation  
Precipitation 0.00 in - - ()
Sea Level Pressure  
Sea Level Pressure 30.22 in    
Wind  
Wind Speed 0 mph (NW)    
Max Wind Speed 4 mph    
Max Gust Speed -    
Visibility 7 miles    
Events Snow    
Averages and records for this station are not official NWS values.
T = Trace of Precipitation, MM = Missing Value Source: NWS Daily Summary

Daily Weather History Graph

Daily Weather History Graph

Search for Another Location

Airport or City:

Trip Planner

Search our weather history database for the weather conditions in past years. The results will help you decide how hot, cold, wet, or windy it might be!

Date:

Astronomy

Nov. 19, 2013 Rise Set
Actual Time 9:52 AM AKST 2:59 PM AKST
Civil Twilight 8:38 AM AKST 4:14 PM AKST
Nautical Twilight 7:28 AM AKST 5:23 PM AKST
Astronomical Twilight 6:25 AM AKST 6:26 PM AKST
Moon 4:46 PM AKST (11/19) 11:51 AM AKST (11/19)
Length of Visible Light 7h 36m
Length of Day
5h 06m
Waning Gibbous, 95% of the Moon is Illuminated
Nov 19
Waning Gibbous
Nov 25
Last Quarter
Dec 2
New
Dec 9
First Quarter
Dec 17
Full

Hourly Weather History & Observations

Time (AKST) Temp. Windchill Dew Point Humidity Pressure Visibility Wind Dir Wind Speed Gust Speed Precip Events Conditions
12:56 AM -11.2 °F - -18.4 °F 70% 30.22 in 2.0 mi Calm Calm - N/A   Overcast
1:16 AM -11.2 °F - -18.4 °F 70% 30.22 in 3.0 mi Calm Calm - N/A   Overcast
1:36 AM -11.2 °F - -18.4 °F 70% 30.22 in 4.0 mi Calm Calm - N/A   Overcast
2:56 AM -16.6 °F - -25.6 °F 64% 30.22 in 10.0 mi Calm Calm - N/A   Mostly Cloudy
3:16 AM -16.6 °F - -23.8 °F 70% 30.22 in 10.0 mi Calm Calm - N/A   Overcast
3:36 AM -16.6 °F - -23.8 °F 70% 30.22 in 7.0 mi Calm Calm - N/A   Overcast
3:56 AM -18.4 °F - -27.4 °F 63% 30.22 in 5.0 mi Calm Calm - N/A   Overcast
4:16 AM -18.4 °F - -25.6 °F 70% 30.23 in 8.0 mi Calm Calm - N/A   Overcast
4:56 AM -22.0 °F - - N/A% 30.22 in 10.0 mi Calm Calm - N/A   Partly Cloudy
5:16 AM -23.8 °F - - N/A% 30.22 in 10.0 mi Calm Calm - N/A   Partly Cloudy
5:56 AM -23.8 °F - - N/A% 30.22 in 10.0 mi Calm Calm - N/A   Overcast
6:36 AM -23.8 °F - - N/A% 30.22 in 9.0 mi Calm Calm - N/A   Overcast
7:20 AM -20.2 °F - -27.4 °F 69% 30.23 in 6.0 mi Calm Calm - N/A Snow Light Snow
7:56 AM -22.0 °F - - N/A% 30.23 in 10.0 mi Calm Calm - N/A   Scattered Clouds
8:33 AM -23.8 °F -35.0 °F - N/A% 30.23 in 10.0 mi WNW 3.5 mph - N/A   Clear
8:50 AM -25.6 °F - - N/A% 30.23 in 10.0 mi Calm Calm - N/A   Partly Cloudy
8:56 AM -25.6 °F - - N/A% 30.23 in 10.0 mi Calm Calm - N/A   Partly Cloudy
9:16 AM -25.6 °F - - N/A% 30.23 in 10.0 mi Calm Calm - N/A   Partly Cloudy
9:36 AM -27.4 °F - - N/A% 30.23 in 10.0 mi Calm Calm - N/A   Partly Cloudy
9:56 AM -29.2 °F - - N/A% 30.23 in 10.0 mi Calm Calm - N/A   Clear
10:16 AM -27.4 °F - - N/A% 30.23 in 10.0 mi Calm Calm - N/A   Clear
10:36 AM -29.2 °F - - N/A% 30.23 in 10.0 mi Calm Calm - N/A   Clear
10:56 AM -27.4 °F - - N/A% 30.23 in 10.0 mi Calm Calm - N/A   Clear
11:16 AM -27.4 °F - - N/A% 30.23 in 10.0 mi Calm Calm - N/A   Clear
11:36 AM -27.4 °F - - N/A% 30.23 in 10.0 mi Calm Calm - N/A   Clear
11:56 AM -27.4 °F - - N/A% 30.23 in 10.0 mi Calm Calm - N/A   Clear
12:16 PM -25.6 °F - - N/A% 30.23 in 10.0 mi Calm Calm - N/A   Clear
12:36 PM -23.8 °F - -25.6 °F 91% 30.23 in 10.0 mi Calm Calm - N/A   Clear
12:56 PM -22.0 °F - -29.2 °F 69% 30.23 in 10.0 mi Calm Calm - N/A   Clear
1:16 PM -23.8 °F - - N/A% 30.22 in 10.0 mi Calm Calm - N/A   Clear
1:36 PM -22.0 °F - -29.2 °F 69% 30.23 in 10.0 mi Calm Calm - N/A   Partly Cloudy
1:56 PM -23.8 °F - - N/A% 30.22 in 10.0 mi Calm Calm - N/A   Scattered Clouds
2:36 PM -23.8 °F - - N/A% 30.22 in 10.0 mi Calm Calm - N/A   Scattered Clouds
2:56 PM -22.0 °F - -27.4 °F 76% 30.21 in 10.0 mi Calm Calm - N/A   Scattered Clouds
3:16 PM -20.2 °F - -27.4 °F 69% 30.22 in 10.0 mi Calm Calm - N/A   Scattered Clouds
3:35 PM -20.2 °F -30.9 °F -27.4 °F 69% 30.22 in 9.0 mi North 3.5 mph - N/A   Overcast
3:36 PM -20.2 °F - -27.4 °F 69% 30.22 in 9.0 mi Calm Calm - N/A   Overcast
3:56 PM -20.2 °F - -27.4 °F 69% 30.21 in 3.0 mi Calm Calm - N/A   Overcast
4:16 PM -20.2 °F - -27.4 °F 69% 30.21 in 3.0 mi Calm Calm - N/A   Overcast
4:24 PM -20.2 °F - -25.6 °F 76% 30.20 in 1.2 mi Calm Calm - N/A   Overcast
4:36 PM -20.2 °F - -25.6 °F 76% 30.21 in 0.8 mi Calm Calm - N/A   Overcast
4:56 PM -18.4 °F - -25.6 °F 70% 30.21 in 4.0 mi Calm Calm - N/A   Overcast
5:36 PM -18.4 °F - -25.6 °F 70% 30.21 in 3.0 mi Calm Calm - N/A   Overcast
5:56 PM -20.2 °F - -27.4 °F 69% 30.21 in 1.2 mi Calm Calm - N/A   Overcast
6:16 PM -20.2 °F - -25.6 °F 76% 30.21 in 4.0 mi Calm Calm - N/A   Overcast
6:36 PM -18.4 °F - -25.6 °F 70% 30.21 in 3.0 mi Calm Calm - N/A   Overcast
6:56 PM -18.4 °F - -25.6 °F 70% 30.20 in 1.0 mi Calm Calm - N/A   Overcast
7:16 PM -18.4 °F - -25.6 °F 70% 30.21 in 5.0 mi Calm Calm - N/A   Overcast
7:56 PM -18.4 °F - -25.6 °F 70% 30.21 in 3.0 mi Calm Calm - N/A   Overcast
8:16 PM -18.4 °F - -25.6 °F 70% 30.21 in 4.0 mi Calm Calm - N/A   Overcast
8:36 PM -18.4 °F - -25.6 °F 70% 30.21 in 5.0 mi Calm Calm - N/A   Overcast
8:56 PM -18.4 °F - -25.6 °F 70% 30.21 in 3.0 mi Calm Calm - N/A   Overcast
9:16 PM -18.4 °F - -23.8 °F 76% 30.21 in 2.5 mi Calm Calm - N/A   Overcast
9:36 PM -18.4 °F - -23.8 °F 76% 30.21 in 2.0 mi Calm Calm - N/A   Overcast
9:56 PM -18.4 °F - -25.6 °F 70% 30.21 in 2.5 mi Calm Calm - N/A   Overcast
10:16 PM -18.4 °F - -23.8 °F 76% 30.22 in 7.0 mi Calm Calm - N/A   Overcast
10:36 PM -18.4 °F - -25.6 °F 70% 30.22 in 7.0 mi Calm Calm - N/A   Overcast
10:56 PM -18.4 °F - -25.6 °F 70% 30.22 in 8.0 mi Calm Calm - N/A   Overcast
11:16 PM -18.4 °F - -23.8 °F 76% 30.21 in 5.0 mi Calm Calm - N/A   Overcast
11:56 PM -18.4 °F - -25.6 °F 70% 30.22 in 3.0 mi Calm Calm - N/A   Overcast